Date String (YYYY-MM-DD hh:mm:ss) UTC,Instrument flags,Ambient pressure (hPa),Sample flow (lpm),Bypass flow (lpm),Sample temperature (°C),Ambient temperature (°C),ASC tube jacket temperature (°C),LED temperature (°C),Box temperature (°C),Sample RH (%),Span deviation,Mass concentration (μg/m³),Mass concentration (μg/m³),Mass concentration (μg/m³)
DateTimeUTC,F1_M11,P_M11,Q1_M11,Q2_M11,T1_M11,T2_M11,T3_M11,T4_M11,T5_M11,U1_M11,ZSPAN_M11,X2_M11,X0_M11,X1_M11
2021-12-25 05:00:00,,0811.8,4.99,0.00,22.3,21.7,00.0,31.4,24.0,13.8,0000.0,0000.39,0000.53,0000.34
2021-12-25 05:01:00,,0811.9,5.00,0.00,22.3,21.6,00.0,31.4,23.9,13.8,0000.0,0000.40,0000.54,0000.35
2021-12-25 05:02:00,,0811.8,5.00,0.00,22.3,21.6,00.0,31.4,23.9,13.8,0000.0,0000.40,0000.55,0000.36
2021-12-25 05:03:00,,0811.7,4.98,0.00,22.2,21.5,00.0,31.4,23.9,13.8,0000.0,0000.41,0000.55,0000.36
2021-12-25 05:04:00,,0811.7,5.00,0.00,22.2,21.5,00.0,31.3,23.8,13.9,0000.0,0000.40,0000.52,0000.37
2021-12-25 05:05:00,,0811.7,5.00,0.00,22.2,21.4,00.0,31.3,23.7,13.9,0000.0,0000.39,0000.48,0000.37
2021-12-25 05:06:00,,0811.7,5.00,0.00,22.1,21.4,00.0,31.3,23.7,13.9,0000.0,0000.39,0000.48,0000.36
2021-12-25 05:07:00,,0811.7,5.00,0.00,22.1,21.3,00.0,31.3,23.7,13.9,0000.0,0000.39,0000.49,0000.37
2021-12-25 05:08:00,,0811.6,5.00,0.00,22.0,21.3,00.0,31.3,23.6,13.9,0000.0,0000.39,0000.48,0000.37
2021-12-25 05:09:00,,0811.6,5.00,0.00,22.0,21.2,00.0,31.2,23.6,14.0,0000.0,0000.40,0000.48,0000.38
2021-12-25 05:10:00,,0811.7,5.00,0.00,22.0,21.2,00.0,31.2,23.6,14.0,0000.0,0000.41,0000.50,0000.39
2021-12-25 05:11:00,,0811.7,5.00,0.00,22.0,21.1,00.0,31.2,23.5,14.0,0000.0,0000.41,0000.50,0000.39
2021-12-25 05:12:00,,0811.7,5.01,0.00,21.9,21.1,00.0,31.2,23.5,14.0,0000.0,0000.42,0000.52,0000.40
2021-12-25 05:13:00,,0811.7,5.00,0.00,21.9,21.1,00.0,31.1,23.5,14.1,0000.0,0000.43,0000.62,0000.40
2021-12-25 05:14:00,,0811.7,4.99,0.00,21.9,21.1,00.0,31.1,23.5,14.1,0000.0,0000.44,0000.67,0000.40
2021-12-25 05:15:00,,0811.8,5.01,0.00,21.8,21.1,00.0,31.1,23.4,14.1,0000.0,0000.44,0000.68,0000.39
2021-12-25 05:16:00,,0811.7,5.00,0.00,21.8,21.1,00.0,31.1,23.4,14.1,0000.0,0000.44,0000.68,0000.39
2021-12-25 05:17:00,,0811.7,5.01,0.00,21.8,21.1,00.0,31.0,23.4,14.1,0000.0,0000.44,0000.69,0000.39
2021-12-25 05:18:00,,0811.7,5.01,0.00,21.8,21.0,00.0,31.0,23.4,14.1,0000.0,0000.43,0000.67,0000.39
2021-12-25 05:19:00,,0811.7,4.99,0.00,21.8,21.0,00.0,31.0,23.4,14.2,0000.0,0000.44,0000.71,0000.38
2021-12-25 05:20:00,,0811.8,5.00,0.00,21.8,21.5,00.0,31.0,23.5,14.2,0000.0,0000.45,0000.74,0000.39
2021-12-25 05:21:00,,0811.8,5.01,0.00,22.0,22.4,00.0,31.1,23.9,14.1,0000.0,0000.45,0000.74,0000.38
2021-12-25 05:22:00,,0811.9,4.99,0.00,22.1,22.9,00.0,31.1,24.1,14.1,0000.0,0000.46,0000.75,0000.39
2021-12-25 05:23:00,,0811.8,5.00,0.00,22.2,22.8,00.0,31.1,24.1,14.0,0000.0,0000.45,0000.73,0000.39
2021-12-25 05:24:00,,0811.7,5.01,0.00,22.2,22.5,00.0,31.1,24.1,13.9,0000.0,0000.45,0000.70,0000.39
2021-12-25 05:25:00,,0811.7,5.01,0.00,22.2,22.3,00.0,31.1,24.0,14.0,0000.0,0000.44,0000.61,0000.39
2021-12-25 05:26:00,,0811.6,5.00,0.00,22.2,22.1,00.0,31.1,23.9,13.9,0000.0,0000.44,0000.58,0000.40
2021-12-25 05:27:00,,0811.6,5.01,0.00,22.2,22.0,00.0,31.1,23.9,13.9,0000.0,0000.44,0000.59,0000.41
2021-12-25 05:28:00,,0811.6,5.00,0.00,22.2,21.9,00.0,31.1,23.9,14.0,0000.0,0000.46,0000.60,0000.42
2021-12-25 05:29:00,,0811.6,5.00,0.00,22.2,21.8,00.0,31.2,23.9,14.0,0000.0,0000.46,0000.59,0000.42
2021-12-25 05:30:00,,0811.7,5.00,0.00,22.2,21.7,00.0,31.2,23.9,14.0,0000.0,0000.47,0000.71,0000.44
2021-12-25 05:31:00,,0811.7,5.01,0.00,22.2,21.6,00.0,31.2,23.9,14.0,0000.0,0000.47,0000.96,0000.44
2021-12-25 05:32:00,,0811.7,4.99,0.00,22.1,21.6,00.0,31.2,23.8,14.0,0000.0,0000.48,0000.97,0000.44
2021-12-25 05:33:00,,0811.7,5.02,0.00,22.1,21.5,00.0,31.2,23.8,14.2,0000.0,0000.48,0000.96,0000.44
2021-12-25 05:34:00,,0811.8,5.00,0.00,22.1,21.5,00.0,31.1,23.8,14.2,0000.0,0000.49,0000.97,0000.45
2021-12-25 05:35:00,,0811.9,5.00,0.00,22.1,21.5,00.0,31.1,23.8,14.2,0000.0,0000.49,0000.98,0000.45
2021-12-25 05:36:00,,0811.8,4.99,0.00,22.1,21.5,00.0,31.1,23.8,14.3,0000.0,0000.51,0001.03,0000.46
2021-12-25 05:37:00,,0811.9,5.00,0.00,22.1,21.5,00.0,31.1,23.8,14.3,0000.0,0000.54,0001.09,0000.47
2021-12-25 05:38:00,,0811.9,4.99,0.00,22.1,21.4,00.0,31.1,23.7,14.3,0000.0,0000.55,0001.11,0000.48
2021-12-25 05:39:00,,0811.8,5.01,0.00,22.0,21.4,00.0,31.1,23.7,14.3,0000.0,0000.55,0001.11,0000.48
2021-12-25 05:40:00,,0811.8,5.01,0.00,22.0,21.3,00.0,31.1,23.7,14.3,0000.0,0000.56,0001.12,0000.49
2021-12-25 05:41:00,,0811.8,5.00,0.00,22.0,21.3,00.0,31.1,23.6,14.4,0000.0,0000.56,0001.00,0000.48
2021-12-25 05:42:00,,0811.8,4.99,0.00,22.0,21.3,00.0,31.1,23.6,14.5,0000.0,0000.56,0000.75,0000.49
2021-12-25 05:43:00,,0811.7,5.00,0.00,21.9,21.2,00.0,31.1,23.5,14.6,0000.0,0000.55,0000.74,0000.49
2021-12-25 05:44:00,,0811.7,5.02,0.00,21.9,21.2,00.0,31.1,23.5,14.7,0000.0,0000.55,0000.75,0000.49
2021-12-25 05:45:00,,0811.7,5.00,0.00,21.9,21.1,00.0,31.0,23.5,14.8,0000.0,0000.54,0000.75,0000.49
2021-12-25 05:46:00,,0811.7,4.99,0.00,21.8,21.1,00.0,31.0,23.4,14.8,0000.0,0000.54,0000.73,0000.48
2021-12-25 05:47:00,,0811.7,5.02,0.00,21.8,21.1,00.0,31.0,23.4,14.9,0000.0,0000.53,0000.74,0000.48
2021-12-25 05:48:00,,0811.7,4.99,0.00,21.8,21.1,00.0,31.0,23.4,14.8,0000.0,0000.51,0000.68,0000.47
2021-12-25 05:49:00,,0811.7,5.01,0.00,21.8,21.0,00.0,31.0,23.4,14.8,0000.0,0000.52,0000.70,0000.48
2021-12-25 05:50:00,,0811.7,5.00,0.00,21.8,21.0,00.0,30.9,23.3,14.7,0000.0,0000.55,0000.84,0000.49
2021-12-25 05:51:00,,0811.6,4.99,0.00,21.7,21.0,00.0,30.9,23.3,14.8,0000.0,0000.56,0000.88,0000.49
2021-12-25 05:52:00,,0811.6,5.01,0.00,21.7,20.9,00.0,30.9,23.3,14.8,0000.0,0000.54,0000.82,0000.49
2021-12-25 05:53:00,,0811.5,5.00,0.00,21.7,20.9,00.0,30.9,23.3,14.8,0000.0,0000.54,0000.81,0000.49
2021-12-25 05:54:00,,0811.6,5.00,0.00,21.7,21.4,00.0,30.9,23.4,15.0,0000.0,0000.53,0000.81,0000.48
2021-12-25 05:55:00,,0811.5,4.99,0.00,21.9,22.3,00.0,30.9,23.8,15.1,0000.0,0000.53,0000.80,0000.48
2021-12-25 05:56:00,,0811.6,5.00,0.00,22.0,23.0,00.0,31.0,24.1,15.0,0000.0,0000.53,0000.79,0000.48
2021-12-25 05:57:00,,0811.6,5.00,0.00,22.1,22.9,00.0,31.0,24.1,14.9,0000.0,0000.53,0000.80,0000.48
2021-12-25 05:58:00,,0811.6,5.01,0.00,22.2,22.7,00.0,31.0,24.1,14.8,0000.0,0000.54,0000.79,0000.50
2021-12-25 05:59:00,,0811.6,5.01,0.00,22.2,22.5,00.0,31.0,24.1,14.7,0000.0,0000.55,0000.84,0000.50
